Home > Time Zones > World Clock > Weather > Macau > Macau > Past weeks

Flag Weather past 2 weeks in Macau, Macau

Now
75 °F

Scattered clouds.


Feels Like: 75 °F
Forecast: 71 / 74 °F
Wind: 2 mph from North

Location: Taipa

Current Time: Nov 28, 2014 at 3:15:37 PM

Latest Report: Nov 28, 2014 at 2:30 PM


Visibility: N/A

Pressure: 29.92 "Hg

Humidity: 83%

Dew point: 70 °F

Location of MacauLocation

Historic Weather in Macau — Graph

°F

Macau temperature yesterday

Maximum temperature yesterday: 77 °F (at 12:00 PM)
Minimum temperature yesterday: 72 °F (at 5:00 PM)
Average temperature yesterday: 74 °F

Past Weeks' High & Low Weather Summary

 TemperatureHumidityPressure
High79 °F (Nov 16, 2:30 PM)94% (Nov 25, 3:00 AM)30.21 "Hg (Nov 25, 3:00 AM)
Low64 °F (Nov 18, 3:30 AM)57% (Nov 17, 2:30 PM)29.86 "Hg (Nov 25, 3:00 PM)
Average72 °F76%30.03 "Hg
* Reported Nov 13 2:00 PM — Nov 28 2:00 PM, Macau, Weather by CustomWeather, © 2014

Note: Actual official high and low records may vary slightly from our data, if they occured in-between our weather recording intervals... More about our weather records

Advertising

Macau weather history for previous 24 hours

 ConditionsComfort  
Time TempWeatherWind HumidityBarometerVisibility
2:00 PM
Nov 28
77 °FScattered clouds.5 mph79%29.92 "HgN/A
1:30 PM75 °FScattered clouds.6 mph83%29.92 "HgN/A
1:00 PM75 °FScattered clouds.7 mph83%29.92 "HgN/A
12:30 PM75 °FScattered clouds.8 mph83%29.95 "HgN/A
11:30 AM75 °FScattered clouds.7 mph83%29.98 "HgN/A
11:00 AM75 °FScattered clouds.7 mph83%29.98 "HgN/A
10:30 AM75 °FScattered clouds.8 mph83%30.01 "HgN/A
10:00 AM73 °FScattered clouds.7 mph89%30.01 "HgN/A
9:30 AM73 °FScattered clouds.7 mph89%30.01 "HgN/A
9:00 AM73 °FScattered clouds.7 mph89%30.01 "HgN/A
8:30 AM73 °FScattered clouds.9 mph89%30.01 "HgN/A
8:00 AM73 °FScattered clouds.8 mph89%29.98 "HgN/A
7:30 AM73 °FScattered clouds.9 mph89%29.98 "HgN/A
7:00 AM73 °FScattered clouds.8 mph89%29.98 "HgN/A
6:30 AM73 °FPassing clouds.9 mph89%29.98 "HgN/A
6:00 AM73 °FPassing clouds.8 mph83%29.95 "HgN/A
5:30 AM73 °FPassing clouds.10 mph89%29.95 "HgN/A
4:30 AM73 °FPassing clouds.13 mph89%29.95 "HgN/A
4:00 AM73 °FPassing clouds.12 mph89%29.95 "HgN/A
3:30 AM72 °FPassing clouds.12 mph94%29.95 "HgN/A
3:00 AM72 °FPassing clouds.15 mph88%29.95 "HgN/A
2:30 AM73 °FPassing clouds.14 mph89%29.95 "HgN/A
2:00 AM73 °FPassing clouds.13 mph83%29.95 "HgN/A
1:30 AM73 °FPassing clouds.14 mph83%29.98 "HgN/A
1:00 AM72 °FPassing clouds.14 mph94%29.98 "HgN/A
12:30 AM72 °FPassing clouds.15 mph94%29.98 "HgN/A
12:00 AM72 °FPassing clouds.14 mph88%29.98 "HgN/A
11:30 PM
Nov 27
73 °FPassing clouds.15 mph83%29.98 "HgN/A
11:00 PM73 °FPassing clouds.17 mph83%29.98 "HgN/A
10:30 PM73 °FPassing clouds.16 mph83%29.98 "HgN/A
10:00 PM73 °FPassing clouds.14 mph83%29.98 "HgN/A
9:30 PM73 °FPassing clouds.13 mph83%29.98 "HgN/A
9:00 PM73 °FPassing clouds.13 mph83%29.98 "HgN/A
8:30 PM73 °FPassing clouds.10 mph83%29.95 "HgN/A
8:00 PM73 °FPassing clouds.10 mph83%29.95 "HgN/A
7:30 PM73 °FPassing clouds.13 mph83%29.95 "HgN/A
7:00 PM72 °FPassing clouds.14 mph83%29.95 "HgN/A
6:30 PM72 °FPassing clouds.12 mph88%29.95 "HgN/A
6:00 PM72 °FPassing clouds.14 mph88%29.92 "HgN/A
5:30 PM72 °FScattered clouds.16 mph88%29.92 "HgN/A
5:00 PM72 °FPassing clouds.18 mph83%29.92 "HgN/A
4:30 PM73 °FPassing clouds.20 mph78%29.89 "HgN/A
4:00 PM73 °FPassing clouds.16 mph78%29.89 "HgN/A
3:30 PM73 °FSunny.16 mph78%29.89 "Hg10 mi
3:00 PM73 °FSunny.16 mph78%29.89 "Hg10 mi
Weather by CustomWeather, © 2014

See weather overviewHow to use our weather pages